Weather History for Fort Polk, LA

Change the Weather History Date:

Tuesday, October 1, 2013

  Actual Average (KPOE) Record (KPOE)
Temperature  
Mean Temperature 78 °F -  
Max Temperature 86 °F 80 °F 93 °F (1998)
Min Temperature 71 °F 61 °F 50 °F (1999)
Cooling Degree Days 14    
Growing Degree Days 28 (Base 50)    
Moisture  
Dew Point 72 °F    
Average Humidity 89    
Maximum Humidity 100    
Minimum Humidity 67    
Precipitation  
Precipitation 0.55 in - - ()
Sea Level Pressure  
Sea Level Pressure 29.94 in    
Wind  
Wind Speed 3 mph (South)    
Max Wind Speed 8 mph    
Max Gust Speed -    
Visibility 8 miles    
Events Rain , Thunderstorm    
Averages and records for this station are not official NWS values.
T = Trace of Precipitation, MM = Missing Value Source: NWS Daily Summary

Daily Weather History Graph

Daily Weather History Graph

Search for Another Location

Airport:

Trip Planner

Search our weather history database for the weather conditions in past years. The results will help you decide how hot, cold, wet, or windy it might be!

Date:

Astronomy

Oct. 01, 2013 Rise Set
Actual Time 7:07 AM CDT 6:57 PM CDT
Civil Twilight 6:42 AM CDT 7:22 PM CDT
Nautical Twilight 6:14 AM CDT 7:50 PM CDT
Astronomical Twilight 5:46 AM CDT 8:18 PM CDT
Moon 3:52 AM CDT (10/1) 4:52 PM CDT (10/1)
Length of Visible Light 12h 39m
Length of Day
11h 50m
Waning Crescent, 12% of the Moon is Illuminated
Oct 1
Waning Crescent
Oct 4
New
Oct 11
First Quarter
Oct 18
Full
Oct 26
Last Quarter

Hourly Weather History & Observations

Time (CDT) Temp. Heat Index Dew Point Humidity Pressure Visibility Wind Dir Wind Speed Gust Speed Precip Events Conditions
12:28 AM 71.6 °F - 71.6 °F 100% 29.91 in 1.8 mi Variable 4.6 mph - N/A   Overcast
12:56 AM 73.0 °F - 72.0 °F 96% 29.90 in 3.0 mi Variable 3.5 mph - N/A   Overcast
1:11 AM 73.4 °F - 71.6 °F 94% 29.91 in 2.5 mi Variable 4.6 mph - N/A   Overcast
1:21 AM 73.4 °F - 71.6 °F 94% 29.91 in 4.0 mi SSE 5.8 mph - N/A   Overcast
1:56 AM 73.0 °F - 72.0 °F 96% 29.90 in 7.0 mi Variable 3.5 mph - N/A   Overcast
2:56 AM 73.9 °F - 72.0 °F 93% 29.90 in 10.0 mi Variable 6.9 mph - N/A   Overcast
3:56 AM 73.9 °F - 72.0 °F 93% 29.90 in 10.0 mi Variable 4.6 mph - N/A   Overcast
4:43 AM 73.4 °F - 71.6 °F 94% 29.91 in 10.0 mi Calm Calm - N/A   Overcast
4:56 AM 73.0 °F - 71.1 °F 93% 29.91 in 10.0 mi Calm Calm - N/A   Overcast
5:23 AM 73.4 °F - 71.6 °F 94% 29.93 in 8.0 mi Calm Calm - N/A   Scattered Clouds
5:56 AM 72.0 °F - 71.1 °F 97% 29.93 in 8.0 mi Calm Calm - N/A   Mostly Cloudy
6:07 AM 71.6 °F - 71.6 °F 100% 29.94 in 6.0 mi Calm Calm - N/A   Mostly Cloudy
6:13 AM 71.6 °F - 69.8 °F 94% 29.94 in 6.0 mi Calm Calm - N/A   Mostly Cloudy
6:56 AM 71.1 °F - 70.0 °F 96% 29.94 in 6.0 mi Calm Calm - N/A   Overcast
7:56 AM 73.0 °F - 71.1 °F 93% 29.96 in 10.0 mi Calm Calm - N/A   Overcast
8:56 AM 75.0 °F - 72.0 °F 90% 29.97 in 10.0 mi SE 4.6 mph - N/A   Overcast
9:16 AM 77.0 °F - 71.6 °F 83% 29.98 in 10.0 mi Variable 4.6 mph - N/A   Mostly Cloudy
9:45 AM 77.0 °F - 71.6 °F 83% 29.99 in 10.0 mi Variable 4.6 mph - N/A   Overcast
9:56 AM 79.0 °F - 72.0 °F 79% 29.98 in 10.0 mi Variable 3.5 mph - N/A   Mostly Cloudy
10:56 AM 80.1 °F 83.8 °F 72.0 °F 76% 29.98 in 10.0 mi Variable 4.6 mph - N/A   Overcast
11:48 AM 82.4 °F 87.2 °F 71.6 °F 70% 29.98 in 10.0 mi Variable 3.5 mph - N/A   Overcast
11:56 AM 82.9 °F 87.5 °F 71.1 °F 67% 29.97 in 10.0 mi SSE 5.8 mph - N/A   Overcast
12:06 PM 82.4 °F 87.2 °F 71.6 °F 70% 29.98 in 10.0 mi Variable 4.6 mph - N/A   Overcast
1:56 PM 84.0 °F 90.2 °F 73.0 °F 69% 29.93 in 10.0 mi Variable 3.5 mph - 0.00 in Rain Light Rain
2:17 PM 80.6 °F 86.2 °F 75.2 °F 84% 29.94 in 10.0 mi Calm Calm - 0.00 in Rain Light Rain
2:56 PM 86.0 °F 93.8 °F 73.9 °F 67% 29.92 in 10.0 mi Calm Calm - 0.00 in   Mostly Cloudy
3:56 PM 84.0 °F 91.2 °F 73.9 °F 72% 29.91 in 10.0 mi Calm Calm - 0.00 in   Partly Cloudy
4:08 PM 82.4 °F 87.2 °F 71.6 °F 70% 29.94 in 8.0 mi South 6.9 mph - 0.01 in Rain , Thunderstorm Light Thunderstorms and Rain
4:14 PM 77.0 °F - 73.4 °F 89% 29.94 in 0.8 mi WSW 8.1 mph - 0.23 in Rain , Thunderstorm Heavy Thunderstorms and Rain
4:27 PM 77.0 °F - 75.2 °F 94% 29.93 in 2.5 mi Calm Calm - 0.34 in Rain , Thunderstorm Thunderstorms and Rain
4:34 PM 77.0 °F - 75.2 °F 94% 29.94 in 4.0 mi Calm Calm - 0.36 in Rain , Thunderstorm Light Thunderstorms and Rain
4:56 PM 75.0 °F - 72.0 °F 90% 29.94 in 2.0 mi Calm Calm - 0.45 in Rain , Thunderstorm Thunderstorms and Rain
5:05 PM 75.2 °F - 73.4 °F 94% 29.95 in 5.0 mi Calm Calm - 0.02 in Rain , Thunderstorm Light Thunderstorms and Rain
5:18 PM 75.2 °F - 73.4 °F 94% 29.94 in 2.5 mi Calm Calm - 0.07 in Rain , Thunderstorm Thunderstorms and Rain
5:25 PM 75.2 °F - 73.4 °F 94% 29.96 in 5.0 mi Variable 4.6 mph - 0.08 in Rain , Thunderstorm Light Thunderstorms and Rain
5:41 PM 73.4 °F - 71.6 °F 94% 29.96 in 8.0 mi SSE 4.6 mph - 0.10 in Rain Light Rain
5:56 PM 73.9 °F - 71.1 °F 91% 29.94 in 10.0 mi Variable 3.5 mph - 0.10 in Rain Light Rain
6:56 PM 73.0 °F - 71.1 °F 93% 29.94 in 10.0 mi Calm Calm - 0.00 in   Clear
7:56 PM 73.0 °F - 71.1 °F 93% 29.96 in 10.0 mi Calm Calm - N/A   Clear
8:56 PM 71.1 °F - 70.0 °F 96% 29.97 in 9.0 mi Calm Calm - N/A   Clear
9:56 PM 72.0 °F - 71.1 °F 97% 29.98 in 10.0 mi Calm Calm - N/A   Clear
10:56 PM 73.0 °F - 71.1 °F 93% 29.97 in 10.0 mi Calm Calm - N/A   Clear
11:56 PM 73.0 °F - 71.1 °F 93% 29.97 in 10.0 mi Calm Calm - N/A   Clear